This is the latest recevied weather packets stored in our database for station/object KO6LQJ. If no packets are shown the sender has not sent any weather packets the latest 10 day(s).
| Time | Temp. | Humidity | Pressure | Rain* | Wind** | Luminosity | Snow |
|---|---|---|---|---|---|---|---|
| 1777601090 | 19.44° C | 63% | 1012.5 hPa | 0 mm | - | 15 W/m² | - |
| 1777600788 | 19.44° C | 62% | 1012.5 hPa | 0 mm | - | 17 W/m² | - |
| 1777600484 | 19.44° C | 62% | 1012.5 hPa | 0 mm | - | 17 W/m² | - |
| 1777600179 | 20° C | 61% | 1012.6 hPa | 0 mm | - | 28 W/m² | - |
| 1777599875 | 20° C | 61% | 1012.7 hPa | 0 mm | - | 39 W/m² | - |
| 1777599571 | 20.56° C | 60% | 1012.4 hPa | 0 mm | - | 44 W/m² | - |
| 1777599268 | 20.56° C | 59% | 1012.5 hPa | 0 mm | - | 55 W/m² | - |
| 1777598964 | 20.56° C | 58% | 1012.4 hPa | 0 mm | - | 54 W/m² | - |
| 1777598662 | 21.11° C | 57% | 1012.3 hPa | 0 mm | - | 61 W/m² | - |
| 1777598357 | 21.11° C | 56% | 1012.4 hPa | 0 mm | - | 84 W/m² | - |
| 1777598056 | 21.11° C | 57% | 1012.4 hPa | 0 mm | - | 81 W/m² | - |
| 1777597755 | 21.11° C | 57% | 1012.3 hPa | 0 mm | - | 54 W/m² | - |
| 1777597451 | 21.67° C | 56% | 1012.5 hPa | 0 mm | - | 53 W/m² | - |
| 1777597146 | 21.67° C | 55% | 1012.3 hPa | 0 mm | - | 85 W/m² | - |
| 1777596843 | 21.67° C | 55% | 1012.3 hPa | 0 mm | - | 43 W/m² | - |
| 1777596539 | 21.67° C | 56% | 1012.2 hPa | 0 mm | - | 42 W/m² | - |
| 1777596236 | 22.22° C | 54% | 1012.5 hPa | 0 mm | - | 49 W/m² | - |
| 1777595933 | 21.67° C | 54% | 1012.3 hPa | 0 mm | - | 50 W/m² | - |
| 1777595633 | 22.22° C | 54% | 1012.4 hPa | 0 mm | - | 161 W/m² | - |
| 1777595329 | 22.22° C | 54% | 1012.2 hPa | 0 mm | - | 228 W/m² | - |
| 1777595025 | 22.22° C | 53% | 1012.2 hPa | 0 mm | - | 167 W/m² | - |
| 1777594722 | 22.22° C | 53% | 1012.3 hPa | 0 mm | - | 147 W/m² | - |
| 1777594419 | 22.22° C | 54% | 1012.1 hPa | 0 mm | - | 41 W/m² | - |
| 1777594114 | 22.78° C | 52% | 1012.2 hPa | 0 mm | - | 282 W/m² | - |
| 1777593810 | 22.78° C | 53% | 1011.9 hPa | 0 mm | - | 58 W/m² | - |
* Rain latest hour (hover to see other rain measurements)
** Current wind speed in m/s (hover to see current wind gust speed)